| time (UTC) | temp C | wind direction | speed KPH | gust KPH | rain 1hr cm | rain 24hr cm | rain mn cm | humidity % | barometer mb |
| 20260507080020 | 3 | 317 | 0.0 | 0.0 | 0.00 | 1.14 | 0.00 | 84 | 1011.3 |
| 20260507075518 | 3 | 317 | 0.0 | 0.0 | 0.00 | 1.14 | 0.00 | 84 | 1011.3 |
| 20260507075018 | 3 | 317 | 0.0 | 0.0 | 0.00 | 1.14 | 0.00 | 84 | 1011.3 |
| 20260507074517 | 3 | 317 | 0.0 | 0.0 | 0.00 | 1.14 | 0.00 | 84 | 1011.3 |
| 20260507074015 | 3 | 317 | 0.0 | 0.0 | 0.00 | 1.14 | 0.00 | 84 | 1011.4 |
| 20260507073515 | 3 | 317 | 0.0 | 0.0 | 0.00 | 1.14 | 0.00 | 84 | 1011.5 |
| 20260507073015 | 3 | 317 | 0.0 | 0.0 | 0.00 | 1.14 | 0.00 | 84 | 1011.7 |
| 20260507072514 | 3 | 317 | 0.0 | 0.0 | 0.00 | 1.14 | 0.00 | 84 | 1011.5 |
| 20260507072013 | 4 | 317 | 0.0 | 0.0 | 0.00 | 1.14 | 0.00 | 84 | 1011.5 |
| 20260507071512 | 4 | 317 | 0.0 | 0.0 | 0.00 | 1.14 | 0.00 | 84 | 1011.4 |
| 20260507071011 | 4 | 317 | 0.0 | 0.0 | 0.00 | 1.14 | 0.00 | 84 | 1011.4 |
| 20260507070511 | 4 | 317 | 0.0 | 0.0 | 0.00 | 1.14 | 0.00 | 84 | 1011.5 |
| 20260507070012 | 4 | 317 | 0.0 | 0.0 | 0.00 | 1.50 | 0.00 | 84 | 1011.4 |
| 20260507065508 | 5 | 317 | 0.0 | 0.0 | 0.00 | 1.50 | 0.00 | 85 | 1011.2 |
| 20260507065007 | 5 | 317 | 0.0 | 0.0 | 0.00 | 1.50 | 0.00 | 85 | 1011.2 |
| 20260507064507 | 5 | 317 | 0.0 | 0.0 | 0.00 | 1.50 | 0.00 | 85 | 1011.4 |
| 20260507064006 | 5 | 317 | 0.0 | 0.0 | 0.00 | 1.50 | 0.00 | 85 | 1011.2 |
| 20260507063506 | 5 | 317 | 0.0 | 0.0 | 0.00 | 1.50 | 0.00 | 85 | 1011.3 |
| 20260507063018 | 5 | 317 | 0.0 | 0.0 | 0.00 | 1.50 | 0.00 | 85 | 1011.1 |
| 20260507062505 | 5 | 317 | 0.0 | 0.0 | 0.00 | 1.50 | 0.00 | 85 | 1011.0 |
| 20260507062005 | 5 | 317 | 0.0 | 0.0 | 0.00 | 1.50 | 0.00 | 85 | 1011.1 |
| 20260507061505 | 5 | 317 | 0.0 | 1.6 | 0.00 | 1.50 | 0.00 | 85 | 1011.2 |
| 20260507061003 | 5 | 317 | 0.0 | 1.6 | 0.00 | 1.50 | 0.00 | 85 | 1011.4 |
| 20260507060502 | 5 | 317 | 0.0 | 1.6 | 0.00 | 1.50 | 0.00 | 85 | 1011.5 |
| 20260507060003 | 5 | 317 | 0.0 | 3.2 | 0.00 | 1.68 | 0.00 | 85 | 1011.5 |
| 20260507055502 | 5 | 317 | 0.0 | 3.2 | 0.00 | 1.68 | 0.00 | 85 | 1011.6 |
| 20260507055001 | 5 | 317 | 0.0 | 3.2 | 0.00 | 1.68 | 0.00 | 85 | 1011.7 |
| 20260507054502 | 5 | 317 | 0.0 | 4.8 | 0.00 | 1.68 | 0.00 | 85 | 1011.7 |
| 20260507054100 | 5 | 317 | 0.0 | 4.8 | 0.00 | 1.68 | 0.00 | 85 | 1011.8 |
| 20260507053600 | 5 | 317 | 0.0 | 4.8 | 0.00 | 1.68 | 0.00 | 85 | 1011.7 |
| 20260507053101 | 5 | 317 | 0.0 | 4.8 | 0.00 | 1.68 | 0.00 | 85 | 1011.7 |
| 20260507052601 | 5 | 317 | 0.0 | 4.8 | 0.00 | 1.68 | 0.00 | 85 | 1011.7 |
| 20260507052059 | 5 | 319 | 0.0 | 6.4 | 0.00 | 1.68 | 0.00 | 85 | 1011.8 |
| 20260507051602 | 5 | 319 | 1.6 | 6.4 | 0.00 | 1.68 | 0.00 | 85 | 1011.8 |
| 20260507051057 | 5 | 319 | 0.0 | 4.8 | 0.00 | 1.68 | 0.00 | 86 | 1011.8 |
| 20260507050556 | 5 | 319 | 1.6 | 4.8 | 0.00 | 1.68 | 0.00 | 86 | 1011.8 |
| 20260507050101 | 5 | 320 | 0.0 | 3.2 | 0.00 | 2.01 | 0.00 | 86 | 1011.9 |
| 20260507045556 | 5 | 320 | 0.0 | 3.2 | 0.00 | 2.01 | 0.00 | 86 | 1011.9 |
| 20260507045056 | 5 | 320 | 0.0 | 4.8 | 0.00 | 2.01 | 0.00 | 86 | 1011.9 |
| 20260507044555 | 5 | 319 | 1.6 | 6.4 | 0.00 | 2.01 | 0.00 | 86 | 1011.9 |
| 20260507044054 | 5 | 319 | 0.0 | 8.0 | 0.00 | 2.01 | 0.00 | 86 | 1011.8 |
| 20260507043553 | 5 | 319 | 1.6 | 8.0 | 0.00 | 2.01 | 0.00 | 86 | 1011.9 |
| 20260507043053 | 5 | 317 | 0.0 | 8.0 | 0.00 | 2.01 | 0.00 | 85 | 1011.8 |
| 20260507042551 | 5 | 327 | 0.0 | 6.4 | 0.00 | 2.01 | 0.00 | 85 | 1011.7 |
| 20260507042054 | 5 | 327 | 0.0 | 8.0 | 0.00 | 2.01 | 0.00 | 86 | 1011.7 |
| 20260507041551 | 5 | 327 | 0.0 | 8.0 | 0.00 | 2.01 | 0.00 | 85 | 1011.7 |
| 20260507041051 | 5 | 302 | 1.6 | 6.4 | 0.00 | 2.01 | 0.00 | 86 | 1011.8 |
| 20260507040550 | 5 | 300 | 1.6 | 6.4 | 0.00 | 2.01 | 0.00 | 86 | 1011.7 |
| 20260507040049 | 6 | 299 | 0.0 | 4.8 | 0.00 | 2.36 | 2.01 | 86 | 1011.7 |
| 20260507035548 | 6 | 298 | 1.6 | 4.8 | 0.00 | 2.36 | 2.01 | 86 | 1011.6 |
| 20260507035048 | 6 | 327 | 0.0 | 6.4 | 0.00 | 2.36 | 2.01 | 85 | 1011.6 |
| 20260507034548 | 6 | 328 | 1.6 | 6.4 | 0.00 | 2.36 | 2.01 | 85 | 1011.5 |
| 20260507034047 | 6 | 331 | 1.6 | 4.8 | 0.00 | 2.36 | 2.01 | 85 | 1011.5 |
| 20260507033547 | 6 | 333 | 0.0 | 6.4 | 0.00 | 2.36 | 2.01 | 85 | 1011.4 |
| 20260507033048 | 6 | 333 | 0.0 | 6.4 | 0.00 | 2.36 | 2.01 | 85 | 1011.4 |
| 20260507032546 | 6 | 277 | 0.0 | 3.2 | 0.00 | 2.36 | 2.01 | 85 | 1011.3 |
| 20260507032045 | 6 | 277 | 0.0 | 4.8 | 0.00 | 2.36 | 2.01 | 85 | 1011.2 |
| 20260507031547 | 6 | 277 | 0.0 | 11.3 | 0.00 | 2.36 | 2.01 | 85 | 1011.3 |
| 20260507031046 | 6 | 306 | 1.6 | 11.3 | 0.00 | 2.36 | 2.01 | 85 | 1011.2 |
| 20260507030545 | 6 | 346 | 0.0 | 3.2 | 0.00 | 2.36 | 2.01 | 85 | 1011.3 |
| 20260507030046 | 6 | 346 | 0.0 | 4.8 | 0.00 | 2.64 | 2.01 | 85 | 1011.2 |
| 20260507025545 | 6 | 346 | 0.0 | 8.0 | 0.00 | 2.64 | 2.01 | 85 | 1011.1 |
| 20260507025045 | 6 | 346 | 1.6 | 8.0 | 0.00 | 2.64 | 2.01 | 85 | 1011.2 |
| 20260507024545 | 6 | 346 | 1.6 | 6.4 | 0.00 | 2.64 | 2.01 | 85 | 1011.2 |
| 20260507024044 | 6 | 323 | 0.0 | 3.2 | 0.00 | 2.64 | 2.01 | 85 | 1011.3 |
| 20260507023544 | 6 | 323 | 0.0 | 3.2 | 0.00 | 2.64 | 2.01 | 85 | 1011.2 |
| 20260507023045 | 6 | 324 | 0.0 | 3.2 | 0.00 | 2.64 | 2.01 | 85 | 1011.1 |
| 20260507022544 | 6 | 323 | 0.0 | 8.0 | 0.00 | 2.64 | 2.01 | 85 | 1011.1 |
| 20260507022044 | 6 | 323 | 0.0 | 8.0 | 0.00 | 2.64 | 2.01 | 85 | 1011.3 |
| 20260507021545 | 6 | 325 | 0.0 | 4.8 | 0.00 | 2.64 | 2.01 | 85 | 1011.4 |
| 20260507021045 | 6 | 325 | 0.0 | 4.8 | 0.00 | 2.64 | 2.01 | 84 | 1011.4 |
| 20260507020545 | 6 | 325 | 0.0 | 8.0 | 0.00 | 2.64 | 2.01 | 85 | 1011.4 |
| 20260507020045 | 6 | 325 | 1.6 | 12.9 | 0.00 | 2.79 | 2.01 | 84 | 1011.3 |
| 20260507015543 | 6 | 319 | 3.2 | 12.9 | 0.00 | 2.79 | 2.01 | 84 | 1011.5 |
| 20260507015042 | 6 | 299 | 1.6 | 12.9 | 0.00 | 2.79 | 2.01 | 84 | 1011.5 |
| 20260507014550 | 7 | 299 | 4.8 | 12.9 | 0.00 | 2.79 | 2.01 | 84 | 1011.3 |
| 20260507014046 | 7 | 322 | 3.2 | 11.3 | 0.00 | 2.79 | 2.01 | 84 | 1011.1 |
| 20260507013544 | 7 | 342 | 1.6 | 12.9 | 0.00 | 2.79 | 2.01 | 84 | 1011.1 |
| 20260507013050 | 7 | 340 | 4.8 | 12.9 | 0.00 | 2.79 | 2.01 | 83 | 1011.2 |
| 20260507012543 | 7 | 319 | 3.2 | 12.9 | 0.00 | 2.79 | 2.01 | 83 | 1011.2 |
| 20260507012041 | 7 | 327 | 3.2 | 9.7 | 0.00 | 2.79 | 2.01 | 83 | 1011.2 |
| 20260507011543 | 7 | 331 | 1.6 | 8.0 | 0.00 | 2.79 | 2.01 | 83 | 1011.3 |
| 20260507011040 | 7 | 333 | 0.0 | 8.0 | 0.00 | 2.79 | 2.01 | 83 | 1011.2 |
| 20260507010539 | 7 | 360 | 1.6 | 8.0 | 0.00 | 2.79 | 2.01 | 83 | 1010.9 |
| 20260507010051 | 7 | 296 | 3.2 | 9.7 | 0.00 | 3.10 | 2.01 | 83 | 1010.9 |
| 20260507005539 | 7 | 355 | 3.2 | 12.9 | 0.00 | 3.10 | 2.01 | 83 | 1010.7 |
| 20260507005036 | 8 | 16 | 3.2 | 12.9 | 0.00 | 3.10 | 2.01 | 83 | 1010.6 |
| 20260507004536 | 8 | 317 | 3.2 | 11.3 | 0.00 | 3.10 | 2.01 | 83 | 1010.4 |
| 20260507004035 | 8 | 327 | 3.2 | 12.9 | 0.00 | 3.10 | 2.01 | 83 | 1010.3 |
| 20260507003537 | 8 | 261 | 3.2 | 12.9 | 0.00 | 3.10 | 2.01 | 83 | 1010.2 |
| 20260507003033 | 8 | 301 | 1.6 | 16.1 | 0.00 | 3.10 | 2.01 | 83 | 1010.1 |
| 20260507002533 | 8 | 301 | 1.6 | 16.1 | 0.00 | 3.10 | 2.01 | 84 | 1010.1 |
| 20260507002033 | 8 | 265 | 3.2 | 16.1 | 0.00 | 3.10 | 2.01 | 84 | 1010.1 |
| 20260507001534 | 8 | 290 | 3.2 | 17.7 | 0.00 | 3.10 | 2.01 | 84 | 1009.9 |
| 20260507001031 | 8 | 325 | 3.2 | 17.7 | 0.00 | 3.10 | 2.01 | 84 | 1009.9 |
| 20260507000532 | 9 | 300 | 3.2 | 16.1 | 0.00 | 3.10 | 2.01 | 84 | 1009.8 |
| 20260507000031 | 9 | 338 | 3.2 | 16.1 | 0.00 | 3.28 | 2.01 | 84 | 1009.8 |
| 20260506235531 | 9 | 300 | 6.4 | 9.7 | 0.00 | 3.28 | 2.01 | 84 | 1009.7 |
| 20260506235029 | 9 | 304 | 0.0 | 4.8 | 0.00 | 3.28 | 2.01 | 85 | 1009.3 |
| 20260506234535 | 9 | 304 | 0.0 | 3.2 | 0.00 | 3.28 | 2.01 | 85 | 1009.3 |
| 20260506234029 | 9 | 304 | 0.0 | 1.6 | 0.00 | 3.28 | 2.01 | 85 | 1009.4 |
| 20260506233529 | 9 | 304 | 0.0 | 1.6 | 0.00 | 3.28 | 2.01 | 85 | 1009.2 |
| 20260506233046 | 9 | 304 | 0.0 | 0.0 | 0.00 | 3.28 | 2.01 | 85 | 1009.2 |
| 20260506232530 | 9 | 304 | 0.0 | 0.0 | 0.00 | 3.28 | 2.01 | 85 | 1009.2 |
| 20260506232028 | 9 | 304 | 0.0 | 0.0 | 0.00 | 3.28 | 2.01 | 85 | 1009.2 |
| 20260506231529 | 9 | 304 | 0.0 | 0.0 | 0.00 | 3.28 | 2.01 | 86 | 1009.2 |
| 20260506231027 | 9 | 304 | 0.0 | 0.0 | 0.00 | 3.28 | 2.01 | 86 | 1009.1 |
| 20260506230525 | 9 | 304 | 0.0 | 0.0 | 0.00 | 3.28 | 2.01 | 86 | 1009.1 |
| 20260506230027 | 9 | 304 | 0.0 | 0.0 | 0.00 | 3.28 | 2.01 | 86 | 1009.1 |
| 20260506225525 | 9 | 304 | 0.0 | 3.2 | 0.00 | 3.28 | 2.01 | 86 | 1009.1 |
| 20260506225022 | 9 | 304 | 0.0 | 3.2 | 0.00 | 3.28 | 2.01 | 86 | 1009.1 |
| 20260506224523 | 9 | 304 | 0.0 | 3.2 | 0.00 | 3.28 | 2.01 | 86 | 1009.0 |
| 20260506224022 | 8 | 304 | 0.0 | 1.6 | 0.00 | 3.28 | 2.01 | 86 | 1009.0 |
| 20260506223520 | 8 | 304 | 0.0 | 1.6 | 0.00 | 3.28 | 2.01 | 86 | 1008.9 |
| 20260506223020 | 8 | 304 | 0.0 | 3.2 | 0.00 | 3.28 | 2.01 | 86 | 1009.0 |
| 20260506222521 | 8 | 304 | 0.0 | 3.2 | 0.00 | 3.28 | 2.01 | 86 | 1008.9 |
| 20260506222023 | 8 | 304 | 0.0 | 3.2 | 0.00 | 3.28 | 2.01 | 86 | 1008.9 |
| 20260506221520 | 8 | 304 | 0.0 | 3.2 | 0.00 | 3.28 | 2.01 | 86 | 1008.9 |
| 20260506221019 | 8 | 304 | 0.0 | 4.8 | 0.00 | 3.28 | 2.01 | 86 | 1008.7 |
| 20260506220520 | 8 | 304 | 0.0 | 4.8 | 0.00 | 3.28 | 2.01 | 86 | 1008.7 |
| 20260506220027 | 8 | 304 | 1.6 | 4.8 | 0.00 | 3.28 | 2.01 | 86 | 1008.5 |
| 20260506215519 | 8 | 306 | 0.0 | 4.8 | 0.00 | 3.28 | 2.01 | 86 | 1008.7 |
| 20260506215019 | 8 | 306 | 0.0 | 1.6 | 0.00 | 3.28 | 2.01 | 86 | 1008.7 |
| 20260506214519 | 8 | 306 | 0.0 | 1.6 | 0.00 | 3.28 | 2.01 | 86 | 1008.8 |
| 20260506214017 | 8 | 306 | 0.0 | 1.6 | 0.00 | 3.28 | 2.01 | 86 | 1008.8 |
| 20260506213516 | 8 | 306 | 0.0 | 4.8 | 0.00 | 3.28 | 2.01 | 86 | 1009.0 |
| 20260506213014 | 8 | 306 | 0.0 | 6.4 | 0.00 | 3.28 | 2.01 | 87 | 1009.0 |
| 20260506212514 | 8 | 306 | 0.0 | 6.4 | 0.00 | 3.28 | 2.01 | 87 | 1009.0 |
| 20260506212012 | 8 | 306 | 1.6 | 4.8 | 0.00 | 3.28 | 2.01 | 87 | 1008.8 |
| 20260506211518 | 8 | 306 | 0.0 | 0.0 | 0.00 | 3.28 | 2.01 | 87 | 1008.7 |
| 20260506211009 | 8 | 306 | 0.0 | 6.4 | 0.00 | 3.28 | 2.01 | 87 | 1008.8 |
| 20260506210512 | 8 | 306 | 0.0 | 6.4 | 0.00 | 3.28 | 2.01 | 88 | 1008.9 |
| 20260506210011 | 8 | 11 | 0.0 | 3.2 | 0.00 | 3.28 | 2.01 | 88 | 1008.7 |
| 20260506205504 | 8 | 11 | 0.0 | 3.2 | 0.00 | 3.28 | 2.01 | 88 | 1008.7 |
| 20260506205005 | 8 | 11 | 0.0 | 3.2 | 0.00 | 3.28 | 2.01 | 88 | 1008.7 |
| 20260506204505 | 8 | 11 | 0.0 | 3.2 | 0.00 | 3.28 | 2.01 | 88 | 1008.6 |
| 20260506204002 | 8 | 11 | 0.0 | 3.2 | 0.00 | 3.28 | 2.01 | 88 | 1008.7 |
| 20260506203503 | 8 | 11 | 0.0 | 3.2 | 0.00 | 3.28 | 2.01 | 88 | 1008.7 |
| 20260506203003 | 8 | 11 | 0.0 | 0.0 | 0.00 | 3.28 | 2.01 | 88 | 1008.6 |
| 20260506202504 | 8 | 11 | 0.0 | 0.0 | 0.00 | 3.28 | 2.01 | 88 | 1008.8 |
| 20260506202002 | 8 | 11 | 0.0 | 0.0 | 0.00 | 3.28 | 2.01 | 88 | 1008.8 |
| 20260506201502 | 7 | 11 | 0.0 | 4.8 | 0.00 | 3.28 | 2.01 | 88 | 1008.8 |
| 20260506201004 | 7 | 11 | 0.0 | 6.4 | 0.00 | 3.28 | 2.01 | 88 | 1008.8 |
| 20260506200501 | 7 | 11 | 1.6 | 6.4 | 0.00 | 3.28 | 2.01 | 88 | 1008.8 |
| 20260506200004 | 7 | 11 | 1.6 | 6.4 | 0.00 | 3.28 | 2.01 | 89 | 1008.8 |
| 20260506195501 | 7 | 9 | 1.6 | 6.4 | 0.00 | 3.28 | 2.01 | 89 | 1008.8 |
| 20260506195001 | 7 | 32 | 1.6 | 4.8 | 0.00 | 3.28 | 2.01 | 89 | 1008.7 |
| 20260506194503 | 7 | 34 | 1.6 | 6.4 | 0.00 | 3.28 | 2.01 | 89 | 1008.5 |
| 20260506194103 | 7 | 34 | 1.6 | 8.0 | 0.00 | 3.28 | 2.01 | 89 | 1008.5 |
| 20260506193602 | 7 | 38 | 1.6 | 8.0 | 0.00 | 3.28 | 2.01 | 89 | 1008.4 |
| 20260506193100 | 7 | 326 | 0.0 | 6.4 | 0.00 | 3.28 | 2.01 | 89 | 1008.5 |
| 20260506192559 | 7 | 324 | 0.0 | 8.0 | 0.00 | 3.28 | 2.01 | 89 | 1008.6 |
| 20260506192102 | 7 | 324 | 1.6 | 8.0 | 0.00 | 3.28 | 2.01 | 89 | 1008.7 |
| 20260506191600 | 7 | 360 | 0.0 | 9.7 | 0.00 | 3.28 | 2.01 | 89 | 1008.7 |
| 20260506191100 | 7 | 360 | 1.6 | 9.7 | 0.00 | 3.28 | 2.01 | 89 | 1008.7 |
| 20260506190559 | 7 | 360 | 1.6 | 9.7 | 0.00 | 3.28 | 2.01 | 89 | 1008.7 |
| 20260506190100 | 7 | 355 | 3.2 | 9.7 | 0.00 | 3.28 | 2.01 | 89 | 1008.7 |
| 20260506185558 | 7 | 355 | 1.6 | 9.7 | 0.00 | 3.28 | 2.01 | 89 | 1008.7 |
| 20260506185059 | 7 | 15 | 3.2 | 9.7 | 0.00 | 3.28 | 2.01 | 89 | 1008.7 |
| 20260506184612 | 7 | 24 | 3.2 | 8.0 | 0.00 | 3.28 | 2.01 | 89 | 1008.6 |
| 20260506184058 | 7 | 360 | 1.6 | 14.5 | 0.00 | 3.28 | 2.01 | 89 | 1008.5 |
| 20260506183600 | 7 | 355 | 1.6 | 14.5 | 0.00 | 3.28 | 2.01 | 89 | 1008.4 |
| 20260506183059 | 7 | 30 | 3.2 | 12.9 | 0.00 | 3.28 | 2.01 | 89 | 1008.5 |
| 20260506182557 | 7 | 5 | 4.8 | 12.9 | 0.00 | 3.28 | 2.01 | 90 | 1008.4 |
| 20260506182057 | 7 | 5 | 3.2 | 9.7 | 0.00 | 3.28 | 2.01 | 90 | 1008.4 |
| 20260506181557 | 7 | 34 | 1.6 | 9.7 | 0.00 | 3.28 | 2.01 | 90 | 1008.5 |
| 20260506181056 | 7 | 355 | 3.2 | 6.4 | 0.00 | 3.28 | 2.01 | 90 | 1008.4 |
| 20260506180557 | 7 | 333 | 1.6 | 6.4 | 0.00 | 3.28 | 2.01 | 90 | 1008.4 |
| 20260506180056 | 7 | 329 | 1.6 | 6.4 | 0.00 | 3.28 | 2.01 | 90 | 1008.5 |
| 20260506175557 | 7 | 9 | 1.6 | 6.4 | 0.00 | 3.28 | 2.01 | 90 | 1008.5 |
| 20260506175053 | 7 | 360 | 0.0 | 6.4 | 0.00 | 3.28 | 2.01 | 90 | 1008.4 |
| 20260506174553 | 7 | 360 | 1.6 | 6.4 | 0.00 | 3.28 | 2.01 | 90 | 1008.2 |
| 20260506174053 | 7 | 309 | 1.6 | 8.0 | 0.00 | 3.28 | 2.01 | 90 | 1008.1 |
| 20260506173552 | 7 | 309 | 1.6 | 8.0 | 0.00 | 3.28 | 2.01 | 90 | 1008.1 |
| 20260506173104 | 7 | 350 | 1.6 | 6.4 | 0.00 | 3.28 | 2.01 | 90 | 1008.1 |
| 20260506172551 | 7 | 348 | 0.0 | 9.7 | 0.00 | 3.28 | 2.01 | 90 | 1008.0 |
| 20260506172050 | 7 | 355 | 3.2 | 9.7 | 0.00 | 3.28 | 2.01 | 90 | 1007.8 |
| 20260506171553 | 7 | 16 | 3.2 | 9.7 | 0.00 | 3.28 | 2.01 | 90 | 1007.7 |
| 20260506171050 | 7 | 13 | 3.2 | 8.0 | 0.00 | 3.28 | 2.01 | 90 | 1007.7 |
| 20260506170550 | 7 | 10 | 1.6 | 8.0 | 0.00 | 3.28 | 2.01 | 90 | 1007.7 |
| 20260506170059 | 7 | 5 | 1.6 | 8.0 | 0.00 | 3.28 | 2.01 | 90 | 1007.7 |
| 20260506165550 | 7 | 15 | 3.2 | 9.7 | 0.00 | 3.28 | 2.01 | 90 | 1007.7 |
| 20260506165050 | 7 | 48 | 4.8 | 9.7 | 0.00 | 3.28 | 2.01 | 90 | 1007.7 |
| 20260506164609 | 7 | 340 | 1.6 | 8.0 | 0.00 | 3.28 | 2.01 | 90 | 1007.6 |
| 20260506164048 | 7 | 334 | 3.2 | 8.0 | 0.00 | 3.28 | 2.01 | 90 | 1007.6 |
| 20260506163549 | 7 | 331 | 1.6 | 8.0 | 0.00 | 3.28 | 2.01 | 90 | 1007.5 |
| 20260506163055 | 7 | 355 | 3.2 | 9.7 | 0.00 | 3.28 | 2.01 | 90 | 1007.5 |
| 20260506162549 | 7 | 13 | 3.2 | 9.7 | 0.00 | 3.28 | 2.01 | 90 | 1007.5 |
| 20260506162048 | 7 | 355 | 3.2 | 9.7 | 0.00 | 3.28 | 2.01 | 90 | 1007.5 |
| 20260506161551 | 7 | 360 | 1.6 | 8.0 | 0.00 | 3.28 | 2.01 | 90 | 1007.5 |
| 20260506161048 | 7 | 360 | 1.6 | 6.4 | 0.00 | 3.28 | 2.01 | 90 | 1007.6 |
| 20260506160548 | 7 | 355 | 1.6 | 6.4 | 0.00 | 3.28 | 2.01 | 90 | 1007.5 |
| 20260506160104 | 7 | 355 | 1.6 | 6.4 | 0.03 | 3.28 | 2.01 | 90 | 1007.6 |
| 20260506155547 | 7 | 355 | 1.6 | 6.4 | 0.03 | 3.28 | 2.01 | 90 | 1007.6 |
| 20260506155048 | 7 | 355 | 1.6 | 6.4 | 0.03 | 3.28 | 2.01 | 90 | 1007.5 |
| 20260506154552 | 7 | 350 | 0.0 | 3.2 | 0.03 | 3.28 | 2.01 | 90 | 1007.7 |
| 20260506154048 | 7 | 350 | 0.0 | 6.4 | 0.03 | 3.28 | 2.01 | 90 | 1007.7 |
| 20260506153547 | 7 | 350 | 0.0 | 6.4 | 0.03 | 3.28 | 2.01 | 90 | 1007.5 |
| 20260506153046 | 7 | 360 | 1.6 | 6.4 | 0.03 | 3.28 | 2.01 | 90 | 1007.5 |
| 20260506152547 | 6 | 360 | 1.6 | 6.4 | 0.03 | 3.28 | 2.01 | 90 | 1007.3 |
| 20260506152047 | 6 | 50 | 0.0 | 3.2 | 0.03 | 3.28 | 2.01 | 90 | 1007.5 |
| 20260506151547 | 6 | 50 | 0.0 | 3.2 | 0.05 | 3.28 | 2.01 | 90 | 1007.5 |
| 20260506151046 | 6 | 50 | 1.6 | 3.2 | 0.05 | 3.28 | 2.01 | 90 | 1007.5 |
| 20260506150546 | 6 | 50 | 0.0 | 4.8 | 0.03 | 3.25 | 1.98 | 90 | 1007.5 |
| 20260506150046 | 6 | 50 | 0.0 | 4.8 | 0.03 | 3.25 | 1.98 | 90 | 1007.5 |
| 20260506145548 | 6 | 50 | 0.0 | 4.8 | 0.03 | 3.25 | 1.98 | 90 | 1007.5 |
| 20260506145046 | 6 | 50 | 0.0 | 4.8 | 0.03 | 3.25 | 1.98 | 90 | 1007.4 |
| 20260506144547 | 6 | 50 | 0.0 | 4.8 | 0.03 | 3.25 | 1.98 | 90 | 1007.2 |
| 20260506144045 | 6 | 50 | 1.6 | 4.8 | 0.05 | 3.25 | 1.98 | 90 | 1007.2 |
| 20260506143545 | 6 | 50 | 1.6 | 6.4 | 0.05 | 3.25 | 1.98 | 90 | 1007.1 |
| 20260506143045 | 6 | 50 | 1.6 | 6.4 | 0.05 | 3.25 | 1.98 | 90 | 1007.0 |
| 20260506142544 | 6 | 49 | 1.6 | 6.4 | 0.05 | 3.25 | 1.98 | 90 | 1007.0 |
| 20260506142044 | 6 | 53 | 3.2 | 8.0 | 0.05 | 3.25 | 1.98 | 90 | 1007.0 |
| 20260506141603 | 6 | 53 | 3.2 | 8.0 | 0.03 | 3.23 | 1.96 | 90 | 1006.9 |
| 20260506141049 | 6 | 134 | 1.6 | 8.0 | 0.03 | 3.23 | 1.96 | 90 | 1006.8 |
| 20260506140548 | 6 | 134 | 1.6 | 8.0 | 0.03 | 3.23 | 1.96 | 90 | 1007.0 |
| 20260506140044 | 6 | 107 | 3.2 | 9.7 | 0.03 | 3.23 | 1.96 | 90 | 1007.0 |
| 20260506135543 | 6 | 45 | 1.6 | 9.7 | 0.03 | 3.23 | 1.96 | 90 | 1007.2 |
| 20260506135043 | 6 | 42 | 1.6 | 8.0 | 0.03 | 3.23 | 1.96 | 90 | 1007.0 |
| 20260506134543 | 6 | 42 | 1.6 | 8.0 | 0.03 | 3.23 | 1.96 | 90 | 1007.1 |
| 20260506134043 | 6 | 42 | 1.6 | 6.4 | 0.03 | 3.20 | 1.93 | 90 | 1007.0 |
| 20260506133542 | 6 | 42 | 3.2 | 6.4 | 0.03 | 3.20 | 1.93 | 90 | 1007.0 |
| 20260506133042 | 6 | 76 | 1.6 | 6.4 | 0.03 | 3.20 | 1.93 | 90 | 1006.9 |
| 20260506132541 | 6 | 76 | 1.6 | 6.4 | 0.03 | 3.20 | 1.93 | 90 | 1006.9 |
| 20260506132041 | 6 | 76 | 0.0 | 12.9 | 0.03 | 3.20 | 1.93 | 90 | 1006.9 |
| 20260506131541 | 6 | 75 | 3.2 | 12.9 | 0.03 | 3.20 | 1.93 | 90 | 1006.8 |
| 20260506131041 | 6 | 136 | 3.2 | 12.9 | 0.05 | 3.20 | 1.93 | 90 | 1006.7 |
| 20260506130540 | 6 | 65 | 3.2 | 12.9 | 0.05 | 3.20 | 1.93 | 90 | 1006.8 |
| 20260506130040 | 6 | 63 | 1.6 | 6.4 | 0.08 | 3.20 | 1.93 | 90 | 1006.9 |
| 20260506125539 | 6 | 65 | 1.6 | 8.0 | 0.08 | 3.20 | 1.93 | 90 | 1007.0 |
| 20260506125039 | 6 | 65 | 3.2 | 8.0 | 0.08 | 3.20 | 1.93 | 90 | 1007.0 |
| 20260506124541 | 6 | 63 | 1.6 | 12.9 | 0.08 | 3.20 | 1.93 | 89 | 1007.0 |
| 20260506124038 | 6 | 63 | 3.2 | 12.9 | 0.08 | 3.17 | 1.91 | 90 | 1007.2 |
| 20260506123539 | 6 | 48 | 0.0 | 8.0 | 0.08 | 3.17 | 1.91 | 89 | 1007.0 |
| 20260506123042 | 6 | 48 | 3.2 | 8.0 | 0.08 | 3.17 | 1.91 | 89 | 1007.0 |
| 20260506122539 | 6 | 60 | 1.6 | 8.0 | 0.08 | 3.17 | 1.91 | 89 | 1007.1 |
| 20260506122037 | 6 | 60 | 3.2 | 9.7 | 0.08 | 3.17 | 1.91 | 89 | 1007.0 |
| 20260506121537 | 6 | 60 | 4.8 | 9.7 | 0.08 | 3.17 | 1.91 | 89 | 1007.0 |
| 20260506121036 | 6 | 42 | 1.6 | 6.4 | 0.05 | 3.15 | 1.88 | 89 | 1007.2 |
| 20260506120536 | 6 | 42 | 1.6 | 8.0 | 0.08 | 3.15 | 1.88 | 89 | 1007.0 |
| 20260506120104 | 6 | 42 | 3.2 | 8.0 | 0.05 | 3.12 | 1.85 | 90 | 1007.1 |
| 20260506115535 | 6 | 11 | 1.6 | 8.0 | 0.05 | 3.12 | 1.85 | 89 | 1007.0 |
| 20260506115035 | 6 | 57 | 0.0 | 16.1 | 0.08 | 3.12 | 1.85 | 89 | 1006.9 |
| 20260506114534 | 6 | 61 | 4.8 | 16.1 | 0.08 | 3.12 | 1.85 | 89 | 1006.9 |
| 20260506114034 | 6 | 46 | 3.2 | 12.9 | 0.08 | 3.10 | 1.83 | 89 | 1006.7 |
| 20260506113533 | 6 | 59 | 3.2 | 12.9 | 0.08 | 3.10 | 1.83 | 89 | 1006.6 |
| 20260506113034 | 6 | 24 | 3.2 | 9.7 | 0.10 | 3.10 | 1.83 | 89 | 1006.6 |
| 20260506112532 | 6 | 53 | 3.2 | 11.3 | 0.13 | 3.10 | 1.83 | 89 | 1006.5 |
| 20260506112031 | 6 | 56 | 3.2 | 11.3 | 0.13 | 3.10 | 1.83 | 89 | 1006.5 |
| 20260506111530 | 6 | 70 | 3.2 | 8.0 | 0.15 | 3.10 | 1.83 | 89 | 1006.5 |
| 20260506111030 | 6 | 49 | 1.6 | 16.1 | 0.18 | 3.10 | 1.83 | 89 | 1006.8 |
| 20260506110528 | 6 | 49 | 4.8 | 16.1 | 0.18 | 3.07 | 1.80 | 89 | 1006.7 |
| 20260506110029 | 6 | 71 | 3.2 | 12.9 | 0.20 | 3.07 | 1.80 | 89 | 1006.6 |
| 20260506105529 | 6 | 70 | 4.8 | 12.9 | 0.20 | 3.07 | 1.80 | 89 | 1006.7 |
| 20260506105028 | 6 | 71 | 4.8 | 9.7 | 0.20 | 3.05 | 1.78 | 89 | 1006.8 |
| 20260506104527 | 6 | 67 | 4.8 | 9.7 | 0.23 | 3.05 | 1.78 | 89 | 1006.8 |
| 20260506104026 | 6 | 75 | 0.0 | 6.4 | 0.20 | 3.02 | 1.75 | 89 | 1006.9 |
| 20260506103526 | 6 | 75 | 1.6 | 8.0 | 0.23 | 3.02 | 1.75 | 89 | 1006.8 |
| 20260506103030 | 6 | 76 | 1.6 | 8.0 | 0.23 | 3.00 | 1.73 | 89 | 1006.9 |
| 20260506102526 | 6 | 38 | 1.6 | 4.8 | 0.23 | 2.97 | 1.70 | 89 | 1007.1 |
| 20260506102024 | 6 | 38 | 1.6 | 4.8 | 0.23 | 2.97 | 1.70 | 89 | 1007.1 |
| 20260506101525 | 6 | 38 | 0.0 | 4.8 | 0.23 | 2.92 | 1.68 | 89 | 1007.0 |
| 20260506101025 | 6 | 52 | 0.0 | 8.0 | 0.20 | 2.90 | 1.65 | 89 | 1006.9 |
| 20260506100525 | 6 | 71 | 0.0 | 9.7 | 0.18 | 2.87 | 1.63 | 89 | 1006.9 |
| 20260506100025 | 6 | 71 | 3.2 | 9.7 | 0.15 | 2.84 | 1.60 | 89 | 1006.6 |
| 20260506095524 | 6 | 31 | 1.6 | 6.4 | 0.18 | 2.84 | 1.60 | 89 | 1006.5 |
| 20260506095023 | 6 | 30 | 1.6 | 6.4 | 0.15 | 2.84 | 1.57 | 89 | 1006.7 |
| 20260506094531 | 6 | 38 | 0.0 | 8.0 | 0.15 | 2.82 | 1.55 | 89 | 1006.6 |
| 20260506094022 | 6 | 33 | 1.6 | 8.0 | 0.15 | 2.82 | 1.55 | 89 | 1006.5 |
| 20260506093521 | 6 | 48 | 3.2 | 11.3 | 0.15 | 2.79 | 1.52 | 89 | 1006.6 |
| 20260506093039 | 6 | 64 | 1.6 | 11.3 | 0.15 | 2.77 | 1.50 | 89 | 1006.5 |
| 20260506092520 | 6 | 66 | 3.2 | 11.3 | 0.13 | 2.74 | 1.45 | 89 | 1006.5 |
| 20260506092020 | 6 | 127 | 3.2 | 12.9 | 0.13 | 2.74 | 1.45 | 89 | 1006.4 |
| 20260506091518 | 7 | 80 | 3.2 | 12.9 | 0.13 | 2.72 | 1.42 | 89 | 1006.3 |
| 20260506091017 | 7 | 77 | 3.2 | 9.7 | 0.15 | 2.72 | 1.42 | 89 | 1006.1 |
| 20260506090516 | 7 | 81 | 3.2 | 11.3 | 0.18 | 2.72 | 1.42 | 89 | 1006.3 |
| 20260506090016 | 7 | 87 | 4.8 | 11.3 | 0.20 | 2.72 | 1.42 | 89 | 1006.2 |
| 20260506085615 | 7 | 51 | 3.2 | 11.3 | 0.20 | 2.69 | 1.42 | 89 | 1006.6 |
| 20260506085015 | 7 | 5 | 0.0 | 11.3 | 0.23 | 2.69 | 1.42 | 89 | 1006.7 |
| 20260506084514 | 7 | 10 | 3.2 | 16.1 | 0.23 | 2.67 | 1.40 | 89 | 1006.6 |
| 20260506084013 | 7 | 63 | 4.8 | 16.1 | 0.25 | 2.67 | 1.40 | 89 | 1006.3 |
| 20260506083516 | 7 | 60 | 1.6 | 8.0 | 0.25 | 2.64 | 1.37 | 89 | 1006.3 |
| 20260506083012 | 7 | 47 | 1.6 | 6.4 | 0.25 | 2.62 | 1.35 | 89 | 1006.4 |
| 20260506082515 | 7 | 46 | 1.6 | 6.4 | 0.30 | 2.62 | 1.35 | 89 | 1006.8 |
| 20260506082014 | 7 | 63 | 1.6 | 8.0 | 0.33 | 2.62 | 1.35 | 88 | 1006.7 |
| 20260506081510 | 7 | 65 | 0.0 | 8.0 | 0.33 | 2.59 | 1.32 | 88 | 1006.8 |
| 20260506081011 | 7 | 67 | 3.2 | 8.0 | 0.36 | 2.57 | 1.30 | 88 | 1006.8 |
| 20260506080510 | 7 | 64 | 0.0 | 8.0 | 0.38 | 2.54 | 1.27 | 88 | 1007.1 |